• Join FlightAware (Why Join?)
  • Login
  • US Flag 
10:55PM EDT


 

Airport Tracker/Info


-or-


 

Live Flight TrackerFlight Track Log ✈ N521LL ✈ 28-Apr-2013 ✈ KDAL - KNEW

Flight Track Log - Related Links

Times and Time Zones

All times are in EDT time to prevent confusion due to time zone crossing. See the N521LL flight status page for this flight to view local times or setup timezone preferences in your user account.

Time Position Orientation Groundspeed Altitude Reporting Facility
EDT Latitude Longitude Course Direction KTS MPH feet Rate Location/Type
03:53PM 32.8000 -96.8167 140° Southeast 194 223 3,100  Level Dallas / Fort Worth TRACON
03:55PM 32.7147 -96.7269 138° Southeast 120 138 7,500 2,520 Climbing Fort Worth Center
03:56PM 32.6994 -96.6431 102° East 245 282 10,200 2,640 Climbing Fort Worth Center
03:57PM 32.7197 -96.5492 76° East 260 299 12,800 2,700 Climbing Fort Worth Center
03:58PM 32.7728 -96.4417 102° East  Level FlightAware Approximate
03:58PM 32.7378 -96.4503 78° East 293 337 15,600  Level Fort Worth Center
03:59PM 32.7581 -96.3611 75° East 304 350 17,500 1,920 Climbing Fort Worth Center
04:00PM 32.7486 -96.2450 95° East 311 358 19,500 1,800 Climbing Fort Worth Center
04:01PM 32.7311 -96.1489 102° East 326 375 21,200 1,680 Climbing Fort Worth Center
04:02PM 32.7131 -96.0283 100° East 332 382 22,900 1,500 Climbing Fort Worth Center
04:03PM 32.6950 -95.9150 101° East 347 399 24,300 1,440 Climbing Fort Worth Center
04:04PM 32.6789 -95.7992 99° East 357 411 25,800 1,620 Climbing Fort Worth Center
04:05PM 32.6608 -95.6836 100° East 357 411 27,600 1,740 Climbing Fort Worth Center
04:06PM 32.6653 -95.5675 87° East 351 404 29,300 1,740 Climbing Fort Worth Center
04:07PM 32.6700 -95.4539 87° East 346 398 31,100 1,860 Climbing Fort Worth Center
04:08PM 32.6828 -95.3378 83° East 346 398 33,100 1,740 Climbing Fort Worth Center
04:09PM 32.6811 -95.2414 91° East 346 398 34,600 1,440 Climbing Fort Worth Center
04:10PM 32.6917 -95.1325 83° East 340 391 36,000 1,200 Climbing Fort Worth Center
04:11PM 32.6939 -95.0264 89° East 335 386 37,000 480 Climbing Fort Worth Center
04:12PM 32.7042 -94.9075 84° East 330 380 37,000  Level Fort Worth Center
04:13PM 32.6931 -94.7819 96° East 352 405 37,000  Level Fort Worth Center
04:14PM 32.6261 -94.6756 127° Southeast 365 420 37,000  Level Fort Worth Center
04:15PM 32.5547 -94.5592 126° Southeast 397 457 37,000  Level Fort Worth Center
04:16PM 32.4831 -94.4408 126° Southeast 420 483 37,000  Level Fort Worth Center
04:17PM 32.4133 -94.3225 125° Southeast 437 503 37,000  Level Fort Worth Center
04:18PM 32.3394 -94.2022 126° Southeast 447 514 37,000  Level Fort Worth Center
04:19PM 32.2631 -94.0772 126° Southeast 453 521 37,000  Level Fort Worth Center
04:21PM 32.1044 -93.8200 126° Southeast 457 526 37,000  Level Houston Center
04:22PM 32.0264 -93.6967 127° Southeast 461 531 37,000  Level Houston Center
04:23PM 31.9356 -93.5503 126° Southeast 460 529 37,000  Level Houston Center
04:24PM 31.8594 -93.4275 126° Southeast 464 534 37,000  Level Houston Center
04:25PM 31.7814 -93.3072 127° Southeast 464 534 37,000  Level Houston Center
04:26PM 31.7022 -93.1636 123° Southeast 472 543 37,000  Level Houston Center
04:27PM 31.6419 -93.0272 117° Southeast 473 544 37,000 -60 Level Houston Center
04:28PM 31.5800 -92.8908 118° Southeast 472 543 36,900 -840 Descending Houston Center
04:29PM 31.5214 -92.7522 116° Southeast 475 547 35,300 -1,920 Descending Houston Center
04:30PM 31.4567 -92.6147 119° Southeast 479 551 33,000 -1,140 Descending Houston Center
04:31PM 31.3739 -92.5014 131° Southeast 464 534 33,000  Level Houston Center
04:32PM 31.2903 -92.3869 131° Southeast 461 531 33,000  Level Houston Center
04:33PM 31.1878 -92.2478 131° Southeast 468 539 33,000  Level Houston Center
04:34PM 31.1039 -92.1308 130° Southeast 469 540 33,000  Level Houston Center
04:35PM 31.0225 -92.0206 131° Southeast 466 536 33,000  Level Houston Center
04:36PM 30.9394 -91.9047 130° Southeast 466 536 33,000  Level Houston Center
04:37PM 30.8369 -91.7697 131° Southeast 462 532 33,000  Level Houston Center
04:38PM 30.7547 -91.6531 129° Southeast 467 537 33,000 -480 Level Houston Center
04:39PM 30.6692 -91.5419 132° Southeast 462 532 32,100 -1,020 Descending Houston Center
04:41PM 30.5758 -91.4425 137° Southeast 457 526 30,900 -2,040 Descending Houston Center
04:42PM 30.4725 -91.3408 140° Southeast 448 516 27,900 -2,640 Descending Houston Center
04:43PM 30.3936 -91.2375 131° Southeast 446 513 25,400 -1,920 Descending Houston Center
04:44PM 30.4333 -91.1214 68° East 422 486 24,000 -1,080 Descending Houston Center
04:45PM 30.5044 -91.1572 337° Northwest 322 371 23,200 -1,380 Descending Houston Center
04:45PM 30.4675 -91.2133 233° Southwest 299 344 21,600 -1,860 Descending Houston Center
04:46PM 30.4519 -91.2169 191° South 309 356 21,300 -1,500 Descending Houston Center
04:47PM 30.3650 -91.1550 148° Southeast 326 375 19,600 -1,440 Descending Houston Center
04:48PM 30.3136 -91.0592 122° Southeast 334 384 18,300 -1,140 Descending Houston Center
04:49PM 30.3044 -90.9628 96° East 328 377 17,300 -1,260 Descending Houston Center
04:50PM 30.2792 -90.8647 107° East 320 368 15,800 -1,440 Descending Houston Center
04:51PM 30.2550 -90.7717 107° East 305 351 14,400 -1,440 Descending Houston Center
04:52PM 30.2239 -90.6603 108° East 293 337 12,800 -1,680 Descending Houston Center
04:53PM 30.1917 -90.5856 116° Southeast 278 320 11,000 -1,740 Descending Houston Center
04:54PM 30.1469 -90.5142 126° Southeast 274 315 9,400 -1,680 Descending Houston Center
04:55PM 30.0922 -90.4319 128° Southeast 265 305 7,400 -1,860 Descending Houston Center
04:56PM 30.0631 -90.3658 117° Southeast 259 298 5,700 -1,860 Descending Houston Center
04:57PM 30.0564 -90.2842 95° East 251 289 3,900 -1,620 Descending Houston Center
04:58PM 30.0456 -90.2042 99° East 249 287 2,300 -1,080 Descending Houston Center
04:59PM 30.0267 -90.1361 108° East 232 267 1,700 -420 Descending Houston Center
05:00PM 30.0072 -90.0797 112° Southeast 203 234 1,500 -600 Descending Houston Center
05:01PM 30.0028 -90.0367 97° East 162 186 500 -720 Descending Houston Center
05:02PM 30.0397 -90.0306 North 142 163 100 -420 Descending Houston Center